User: anonymous   Login
Location: Cranbrook Institute of Science
(42.5830°N, 83.2450°W)
Time: 15:24:18
(UTC-05:00)
Language:

CZ-4B R/B - Orbit

View from above orbital plane
View from above orbital plane
View from above satellite
View from above satellite

Ground track
Ground track

The orbit data is extracted from the following two-line orbital elements,

1 29093U 06015B   14325.18609675  .00014925  00000-0  50488-3 0  4547
2 29093 097.5115 045.3828 0087410 069.2992 321.6547 15.27037488473513
Epoch (UTC): 21 November 2014 04:27:58
Eccentricity: 0.0087410
inclination: 97.5115°
perigee height: 424 km
apogee height: 544 km
right ascension of ascending node: 45.3828°
argument of perigee: 69.2992°
revolutions per day: 15.27037488
mean anomaly at epoch: 321.6547°
orbit number at epoch: 47351

The dashed part of the orbit path shows where the satellite is in the earth's shadow,  

DLR